Track EXPLORER 47 (IMP-7) now! EXPLORER 47 (IMP-7) is classified as:
1 6197U 72073A 20306.91620965 -.00001306 +00000-0 +00000-0 0 9992 2 6197 035.7256 297.2578 1971892 194.9062 355.7204 00.08020531002255